Preview of NWS' New Version of Forecast
This preview is not operational and should not be used for support decisions.

Regional Weather Roundup (RWR)

Issued by Boston / Norton, MA (BOX)

                            
000
ASUS41 KBOX 160810
RWRBOX

REGIONAL WEATHER ROUNDUP
NATIONAL WEATHER SERVICE BOSTON/NORTON MA
400 AM EDT TUE OCT 16 2018

NOTE:  "FAIR" INDICATES FEW OR NO CLOUDS BELOW 12,000 FEET WITH NO 
SIGNIFICANT WEATHER AND/OR OBSTRUCTIONS TO VISIBILITY.

MAZALL-160900-
EASTERN MASSACHUSETTS
  
CITY           SKY/WX    TMP DP  RH WIND       PRES   REMARKS
BOSTON         MOCLDY    54  35  48 NW28G36   29.86R                  
BEVERLY        FAIR      52  37  56 W18G26    29.82R                  
LAWRENCE       FAIR      54  29  38 W23G37    29.87R                  
BEDFORD        FAIR      51  31  46 W23G37    29.87R                  
BLUE HILL      NOT AVBL                                               
NORWOOD        FAIR      54  40  59 W20G29    29.87R                  
MARSHFIELD     FAIR      54  43  66 W12G26    29.84R                  
PLYMOUTH       FAIR      55  49  80 W13G23    29.85R                  
TAUNTON        FAIR      54  44  69 W10G23    29.87R                  
NEW BEDFORD    FAIR      53  49  86 NW12G25   29.86R                  
$$

MAZALL-160900-
CAPE COD AND THE ISLANDS
  
CITY           SKY/WX    TMP DP  RH WIND       PRES   REMARKS
FALMOUTH       CLOUDY    54  50  87 W21G28    29.87R                  
HYANNIS        LGT RAIN  55  51  86 NW9G18    29.84R                  
CHATHAM        LGT RAIN  55  52  89 VRB7G23   29.84R                  
PROVINCETOWN   MOCLDY    56  46  69 NW29G37   29.83R                  
NANTUCKET      RAIN      55  52  89 NW20G35   29.86R FOG              
MARTHAS VNYRD  LGT RAIN  55  52  89 NW17G26   29.87R                  
$$
 
MAZALL-160900-
CENTRAL AND WESTERN MASSACHUSETTS
  
CITY           SKY/WX    TMP DP  RH WIND       PRES   REMARKS
WORCESTER      FAIR      44  29  55 W20G39    29.90R                  
FITCHBURG      FAIR      47  29  49 W21G30    29.90R                  
ORANGE         FAIR      46  27  47 W20G32    29.94R                  
SPRINGFIELD    FAIR      46  27  47 NW15G23   29.96R                  
WESTFIELD      FAIR      46  29  51 NW14G37   29.98R                  
NORTH ADAMS    FAIR      42  28  57 W12G21    30.01R                  
PITTSFIELD     FAIR      41  27  57 NW14G23   29.99R                  
$$
 
RIZALL-160900-
RHODE ISLAND
  
CITY           SKY/WX    TMP DP  RH WIND       PRES   REMARKS
PROVIDENCE     FAIR      53  40  61 W23G32    29.89R                  
NEWPORT        FAIR      54  44  69 NW21G35   29.89R                  
BLOCK ISLAND   CLOUDY    57  51  80 NW17G26   29.92R                  
SMITHFIELD     FAIR      50  40  68 NW20G33   29.89R                  
WESTERLY       FAIR      55  48  77 NW12G22   29.92R                  
$$
 
CTZALL-160900-
CONNECTICUT
  
CITY           SKY/WX    TMP DP  RH WIND       PRES   REMARKS
BRADLEY INTL   FAIR      48  34  58 NW20G26   29.99R                  
HARTFORD       FAIR      51  36  56 N12       29.98R                  
BRIDGEPORT     FAIR      56  39  53 NW18G28   29.97R                  
DANBURY        FAIR      50  36  58 W12G22    30.00R                  
GROTON         FAIR      55  47  74 NW18G28   29.92R                  
NEW HAVEN      FAIR      57  42  57 NW13G25   29.96R                  
CHESTER        FAIR      52  43  71 NW17G28   29.94R                  
MERIDEN        FAIR      52  38  58 N16G22    29.98R                  
WILLIMANTIC    FAIR      50  39  66 NW16G25   29.95R                  
OXFORD         FAIR      50  43  77 N14       29.97R                  
$$

MEZ002-015-021-024-NHZ003-005-008-011-012-014-VTZ005-008-160900-
NORTHERN NEW ENGLAND
  
CITY           SKY/WX    TMP DP  RH WIND       PRES   REMARKS
PORTLAND ME    FAIR      50  34  54 W17G30    29.74R                  
BANGOR ME      FAIR      50  36  58 W22G41    29.62R                  
CONCORD NH     FAIR      47  27  45 W25G36    29.84R                  
MANCHESTER NH  FAIR      51  26  37 NW23G39   29.85R                  
NASHUA NH      FAIR      50  27  40 W18G33    29.88R                  
PORTSMOUTH NH  FAIR      51  32  48 W28G39    29.79R                  
JAFFREY NH     FAIR      44  32  62 W9G22     29.90R                  
KEENE NH       FAIR      45  26  47 W8G20     29.95R                  
BURLINGTON VT  FAIR      43  29  57 W18G31    29.91R                  
MT. WASHINGTON FOG       18  18 100 W76G90      N/A  VSB 0   WCI -10  
$$

NYZ052-076-160900-
EASTERN NEW YORK
  
CITY           SKY/WX    TMP DP  RH WIND       PRES   REMARKS
ALBANY         FAIR      43  28  55 W7        30.05S                  
NEW YORK CITY  MOCLDY    58  44  60 NW16G29   30.00R                  
$$
 
ANZALL-160900-
MARINE OBSERVATIONS
  
STATION/POSITION TIME  TEMP    WIND        PRES    VSBY  WAVE
                       AIR SEA DIR/SP/G                  HT/PER
                 (UTC) (F)     (DEG/KT/KT) (MB)    (MI)  (FT/S)
BOSTON BUOY      0750   56 60  280/ 31/ 39 1008.5R         5/ 5
BUZZARDS BAY     0700   58     300/ 28/ 30 1010.9R
NANTUCKET SOUND  0750   58     300/ 27/ 35   N/A           4/ 4
MASS BAY-STELLWA 0704   57 59  290/ 25/ 29 1007.0R  1 7/8  4/ 5
ISLE OF SHOALS   0700   55     280/ 24/ 27 1006.7R
S OF BLOCK IS    0743      63                N/A          10/ 8
$$

......................KEY.........................
  SKY/WX - SKY CONDITION/PRESENT WEATHER
  TMP    - TEMPERATURE IN FAHRENHEIT
  DWPT   - DEWPOINT IN FAHRENHEIT
  RH     - RELATIVE HUMIDITY IN PERCENT
  WIND   - DIRECTION AND SPEED IN MPH
  PRES   - MEAN SEA LEVEL PRESSURE IN INCHES OF HG
  WCI    - WIND CHILL INDEX
  VSB    - VISIBILITY IN MILES
  HX     - HEAT INDEX
  TC     - TEMPERATURE IN CELSIUS
  VRB    - VARIABLE WIND DIRECTION
  N/A    - NOT AVAILABLE